TimePDT,TemperatureF,Dew PointF,Humidity,Sea Level PressureIn,VisibilityMPH,Wind Direction,Wind SpeedMPH,Gust SpeedMPH,PrecipitationIn,Events,Conditions,WindDirDegrees,DateUTC
12:43 AM,60.8,35.6,39,29.89,10.0,NNE,8.1,-,N/A,Rain,Light Rain,30,2013-05-07 07:43:00
12:58 AM,60.1,37.0,42,29.89,10.0,NNE,11.5,-,0.00,,Light Drizzle,30,2013-05-07 07:58:00
1:06 AM,59.0,37.4,45,29.89,10.0,NE,10.4,-,N/A,,Mostly Cloudy,40,2013-05-07 08:06:00
1:58 AM,58.3,38.3,47,29.88,10.0,East,3.5,-,0.00,,Mostly Cloudy,80,2013-05-07 08:58:00
2:58 AM,57.7,40.1,52,29.88,10.0,SW,5.8,-,N/A,,Mostly Cloudy,220,2013-05-07 09:58:00
3:58 AM,56.8,39.2,52,29.88,10.0,North,4.6,-,N/A,,Mostly Cloudy,350,2013-05-07 10:58:00
4:58 AM,55.9,41.2,58,29.88,10.0,ESE,10.4,-,N/A,,Overcast,120,2013-05-07 11:58:00
5:17 AM,55.4,42.8,63,29.89,10.0,ESE,9.2,-,N/A,,Light Drizzle,120,2013-05-07 12:17:00
5:26 AM,55.4,42.8,63,29.89,10.0,SE,10.4,-,N/A,,Overcast,130,2013-05-07 12:26:00
5:58 AM,55.2,41.7,60,29.89,10.0,SE,9.2,-,0.00,,Overcast,140,2013-05-07 12:58:00
6:58 AM,57.0,40.8,55,29.91,10.0,North,1.2,-,N/A,,Overcast,10,2013-05-07 13:58:00
7:58 AM,54.9,41.7,61,29.92,10.0,NNE,18.4,-,N/A,,Mostly Cloudy,20,2013-05-07 14:58:00
8:58 AM,53.4,42.1,65,29.93,10.0,NNE,17.3,-,N/A,,Overcast,30,2013-05-07 15:58:00
9:56 AM,55.4,41.0,58,29.94,10.0,NNE,16.1,-,N/A,,Overcast,20,2013-05-07 16:56:00
10:08 AM,55.4,41.0,58,29.94,10.0,NNE,12.7,-,N/A,,Light Drizzle,20,2013-05-07 17:08:00
10:22 AM,55.4,41.0,58,29.96,10.0,WNW,16.1,20.7,N/A,,Overcast,300,2013-05-07 17:22:00
10:26 AM,55.4,42.8,63,29.96,10.0,West,11.5,20.7,N/A,,Overcast,260,2013-05-07 17:26:00
10:30 AM,53.6,42.8,67,29.97,10.0,West,15.0,20.7,N/A,Rain,Light Rain,270,2013-05-07 17:30:00
10:32 AM,53.6,42.8,67,29.97,10.0,West,17.3,20.7,N/A,Rain,Light Rain,280,2013-05-07 17:32:00
10:35 AM,51.8,42.8,71,29.97,9.0,WNW,15.0,-,N/A,Rain,Light Rain,290,2013-05-07 17:35:00
10:45 AM,50.0,44.6,82,29.97,7.0,West,15.0,-,N/A,Rain-Thunderstorm,Thunderstorms and Rain,270,2013-05-07 17:45:00
10:56 AM,50.0,46.4,87,29.97,10.0,West,12.7,-,N/A,Rain-Thunderstorm,Light Thunderstorms and Rain,280,2013-05-07 17:56:00
11:56 AM,50.0,42.8,76,29.97,10.0,East,4.6,-,N/A,Rain-Thunderstorm,Light Thunderstorms and Rain,100,2013-05-07 18:56:00
12:06 PM,51.8,44.6,76,29.97,10.0,SE,5.8,-,N/A,Rain,Light Rain,130,2013-05-07 19:06:00
12:24 PM,51.8,44.6,76,29.97,10.0,SSE,6.9,-,N/A,,Overcast,150,2013-05-07 19:24:00
12:27 PM,51.8,44.6,76,29.97,10.0,SSE,6.9,-,N/A,,Overcast,150,2013-05-07 19:27:00
12:28 PM,51.8,44.6,76,29.97,10.0,SSE,6.9,-,N/A,,Mostly Cloudy,150,2013-05-07 19:28:00
12:35 PM,51.8,44.6,76,29.97,10.0,ESE,8.1,-,N/A,,Light Drizzle,110,2013-05-07 19:35:00
12:58 PM,51.6,45.0,78,29.96,10.0,East,9.2,-,0.00,Rain,Light Rain,100,2013-05-07 19:58:00
1:01 PM,51.8,44.6,76,29.96,10.0,East,9.2,-,N/A,Rain,Light Rain,90,2013-05-07 20:01:00
1:11 PM,51.8,44.6,76,29.96,10.0,ESE,8.1,-,N/A,Rain,Light Rain,110,2013-05-07 20:11:00
1:18 PM,51.8,44.6,76,29.95,10.0,East,6.9,-,N/A,,Scattered Clouds,80,2013-05-07 20:18:00
1:58 PM,54.1,43.9,68,29.95,10.0,SSE,15.0,-,0.00,,Scattered Clouds,160,2013-05-07 20:58:00
2:07 PM,53.6,46.4,77,29.95,10.0,ESE,16.1,-,N/A,,Mostly Cloudy,110,2013-05-07 21:07:00
3:58 PM,58.1,38.8,49,29.94,10.0,Variable,4.6,-,N/A,,Mostly Cloudy,0,2013-05-07 22:58:00
4:58 PM,58.6,39.6,49,29.94,10.0,NW,3.5,-,N/A,,Mostly Cloudy,320,2013-05-07 23:58:00
5:58 PM,59.5,40.5,49,29.93,10.0,North,8.1,-,N/A,,Scattered Clouds,10,2013-05-08 00:58:00
6:58 PM,58.5,42.1,55,29.92,10.0,North,9.2,-,N/A,,Clear,360,2013-05-08 01:58:00
7:58 PM,56.1,41.2,57,29.93,10.0,North,6.9,-,N/A,,Clear,10,2013-05-08 02:58:00
8:56 PM,53.6,42.8,67,29.95,10.0,North,2.3,-,N/A,,Clear,360,2013-05-08 03:56:00
9:58 PM,54.1,41.2,62,29.96,10.0,SW,2.3,-,N/A,,Clear,230,2013-05-08 04:58:00
10:58 PM,50.5,42.1,73,29.97,10.0,NW,2.3,-,N/A,,Clear,310,2013-05-08 05:58:00
11:58 PM,52.5,41.7,67,29.98,10.0,West,4.6,-,N/A,,Mostly Cloudy,270,2013-05-08 06:58:00